INMARSAT 4-F2

Last updated on Thu Oct 30 2025 00:02:47 GMT+0000 (Coordinated Universal Time)

1 28899U 05044A 25302.53377932 -.00000248 00000+0 00000+0 0 9993 2 28899 4.7935 43.6245 0003404 189.5925 140.5857 1.00272470 73205
UTC large
Height (km)
Speed (km/s)
/
Latitude / Longitude
Inclination (degrees)
Orbital Period (minutes)
Azimuth
Elevation
Range (km)
Doppler Factor

Next 0 passes for location: London (51.5072 / 0.1276)

Sorry there are no passes over London.